Flag for France Weather past 2 weeks in Orléans, France

Now
61 °F

Cool.


Feels Like: 61 °F
Forecast: 57 / 78 °F
Wind: 6 mph from North

Location: Orleans Airport

Current Time: Jul 25, 2014 at 7:15:43 AM

Latest Report: Jul 25, 2014 at 7:00 AM


Visibility: N/A

Pressure: 29.92 "Hg

Humidity: 94%

Dew point: 59 °F

Location of OrléansLocation

Historic Weather in Orléans — Graph

°F

Orléans temperature yesterday

Maximum temperature yesterday: 86 °F (at 2:00 PM)
Minimum temperature yesterday: 59 °F (at 6:30 AM)
Average temperature yesterday: 74 °F

Past Weeks' High & Low Weather Summary

 TemperatureHumidityPressure
High91 °F (Jul 18, 5:00 PM)100% (Jul 12, 4:30 AM)30.18 "Hg (Jul 12, 4:30 AM)
Low50 °F (Jul 14, 4:00 AM)37% (Jul 24, 3:00 PM)29.74 "Hg (Jul 19, 5:30 AM)
Average68 °F76%29.99 "Hg
* Reported Jul 10 6:00 AM — Jul 25 6:00 AM, Orléans, Weather by CustomWeather, © 2014

Note: Actual official high and low records may vary slightly from our data, if they occured in-between our weather recording intervals... More about our weather records

Advertising

Orléans weather history for previous 24 hours

 ConditionsComfort  
Time TempWeatherWind HumidityBarometerVisibility
6:00 AM
Jul 25
63 °FClear.8 mph88%29.89 "HgN/A
5:30 AM63 °FClear.5 mph88%29.89 "HgN/A
5:00 AM64 °FClear.7 mph83%29.89 "HgN/A
4:30 AM64 °FClear.5 mph88%29.89 "HgN/A
4:00 AM64 °FClear.5 mph88%29.89 "HgN/A
3:30 AM63 °FClear.3 mph88%29.89 "HgN/A
3:00 AM64 °FClear.3 mph83%29.92 "HgN/A
2:30 AM64 °FClear.7 mph83%29.92 "HgN/A
2:00 AM66 °FMild.8 mph83%29.92 "HgN/A
1:30 AM66 °FMild.3 mph83%29.92 "HgN/A
1:00 AM68 °FMild.3 mph78%29.92 "HgN/A
12:30 AM68 °FClear.2 mph73%29.92 "HgN/A
12:00 AM68 °FMild.2 mph73%29.92 "HgN/A
11:30 PM
Jul 24
70 °FMild.7 mph69%29.92 "HgN/A
11:00 PM70 °FMild.2 mph73%29.92 "HgN/A
10:30 PM72 °FThunderstorms. Cloudy.5 mph65%29.92 "HgN/A
10:00 PM73 °FThunderstorms. Cloudy.7 mph61%29.92 "HgN/A
9:30 PM72 °FThunderstorms. Cloudy.6 mph69%29.92 "HgN/A
9:00 PM73 °FThunderstorms. Cloudy.10 mph61%29.92 "HgN/A
8:30 PM79 °FThunderstorms. Cloudy.5 mph51%29.89 "HgN/A
8:00 PM79 °FThunderstorms. Cloudy.8 mph54%29.89 "HgN/A
7:30 PM82 °FThunderstorms. Cloudy.8 mph48%29.89 "HgN/A
7:00 PM81 °FThundershowers. Cloudy.7 mph51%29.89 "HgN/A
6:30 PM84 °FWarm.5 mph45%29.89 "HgN/A
6:00 PM86 °FWarm.2 mph40%29.89 "HgN/A
5:30 PM84 °FClear.7 mph45%29.89 "HgN/A
5:00 PM82 °FClear.9 mph51%29.89 "HgN/A
4:30 PM81 °FClear.7 mph54%29.89 "HgN/A
4:00 PM81 °FThundershowers. Cloudy.9 mph54%29.89 "HgN/A
3:30 PM82 °FWarm.7 mph42%29.89 "HgN/A
3:00 PM84 °FThundershowers. Cloudy.8 mph37%29.89 "HgN/A
2:30 PM84 °FThundershowers. Cloudy.10 mph40%29.92 "HgN/A
2:00 PM86 °FClear.10 mph40%29.92 "HgN/A
1:30 PM84 °FClear.9 mph43%29.92 "HgN/A
1:00 PM84 °FClear.8 mph45%29.92 "HgN/A
12:30 PM84 °FClear.5 mph43%29.92 "HgN/A
12:00 PM82 °FClear.5 mph48%29.92 "HgN/A
11:30 AM81 °FClear.6 mph51%29.92 "HgN/A
11:00 AM79 °FClear.6 mph58%29.92 "HgN/A
10:30 AM77 °FClear.5 mph61%29.92 "HgN/A
10:00 AM75 °FClear.5 mph65%29.92 "HgN/A
9:30 AM73 °FClear.6 mph69%29.92 "HgN/A
9:00 AM70 °FClear.5 mph78%29.92 "HgN/A
8:30 AM68 °FClear.5 mph78%29.92 "HgN/A
8:00 AM66 °FClear.3 mph83%29.92 "HgN/A
7:30 AM63 °FClear.2 mph94%29.92 "HgN/A
7:00 AM61 °FClear.3 mph94%29.92 "HgN/A
Weather by CustomWeather, © 2014

See weather overviewHow to use our weather pages